Home > Weather > Deggendorf > Past weeks

Flag for Germany Weather for the Past 2 Weeks in Deggendorf, Bavaria, Germany

Now
39 °F

Clear.


Feels Like: 39 °F
Forecast: 39 / 56 °F
Wind: No wind

Location: Hohenfels

Current Time: May 3, 2016 at 5:21:22 AM

Latest Report: May 3, 2016 at 3:58 AM


Visibility: N/A

Pressure: 30.07 "Hg

Humidity: 93%

Dew Point: 37 °F

Location of DeggendorfLocation

Historic Weather in Deggendorf — Graph

°F

Deggendorf Temperature Yesterday

Maximum temperature yesterday: 64 °F (at 3:58 PM)
Minimum temperature yesterday: 41 °F (at 5:58 AM)
Average temperature yesterday: 53 °F

High & Low Weather Summary for the Past Weeks

 TemperatureHumidityPressure
High66 °F (Apr 21, 5:58 PM)100% (Apr 18, 4:02 AM)30.42 "Hg (Apr 18, 4:02 AM)
Low28 °F (Apr 28, 2:58 AM)26% (Apr 30, 4:58 PM)29.57 "Hg (Apr 26, 6:00 AM)
Average44 °F72%30.02 "Hg
* Reported Apr 18 4:02 AM — May 3 3:58 AM, Deggendorf, Weather by CustomWeather, © 2016

Note: Actual official high and low records may vary slightly from our data, if they occured in-between our weather recording intervals... More about our weather records

Advertising

Deggendorf Weather History for the Previous 24 Hours

Scroll right to see more
 ConditionsComfort  
Time TempWeatherWind HumidityBarometerVisibility
3:58 AM
Tue, May 3
39 °FClear.No wind93%30.07 "HgN/A
2:58 AM39 °FPassing clouds.No wind93%30.08 "HgN/A
1:58 AM41 °FPassing clouds.3 mph87%30.10 "HgN/A
12:58 AM43 °FClear.3 mph81%30.10 "HgN/A
11:58 PM
Mon, May 2
43 °FClear.2 mph76%30.11 "HgN/A
10:58 PM45 °FClear.2 mph76%30.11 "HgN/A
9:58 PM48 °FClear.2 mph66%30.10 "HgN/A
8:58 PM52 °FScattered clouds.3 mph62%30.10 "HgN/A
7:58 PM61 °FSunny.1 mph42%30.08 "HgN/A
6:58 PM63 °FSunny.7 mph32%30.09 "HgN/A
5:58 PM64 °FPassing clouds.3 mph32%30.09 "HgN/A
4:58 PM64 °FSunny.7 mph30%30.09 "HgN/A
3:58 PM64 °FSunny.7 mph30%30.11 "HgN/A
2:58 PM63 °FSunny.6 mph37%30.13 "HgN/A
1:58 PM61 °FSunny.1 mph42%30.14 "HgN/A
12:58 PM61 °FSunny.5 mph42%30.15 "HgN/A
11:58 AM59 °FSunny.6 mph45%30.17 "HgN/A
10:58 AM57 °FSunny.7 mph51%30.18 "HgN/A
9:58 AM54 °FSunny.6 mph58%30.18 "HgN/A
8:58 AM52 °FSunny.8 mph62%30.19 "HgN/A
6:58 AM43 °FSunny.5 mph81%30.20 "HgN/A
5:58 AM41 °FClear.5 mph81%30.21 "HgN/A
Weather by CustomWeather, © 2016

See weather overviewHow to use our weather pages